Dryden, TX

10:43 AM CDT on September 19, 2017 (GMT -0500)
Dryden

Weather History for K6R6 - May, 2014

Change the Weather History Date:

Saturday, May 31, 2014

  Actual Average (KFST) Record (KFST)
Temperature  
Mean Temperature 88 °F -  
Max Temperature 104 °F 93 °F 107 °F (2008)
Min Temperature 73 °F 65 °F 55 °F (2015)
Cooling Degree Days 22    
Growing Degree Days 38 (Base 50)    
Moisture  
Dew Point 52 °F    
Average Humidity 32    
Maximum Humidity 46    
Minimum Humidity 17    
Precipitation  
Precipitation 0.00 in - - ()
Sea Level Pressure  
Sea Level Pressure 29.80 in    
Wind  
Wind Speed 7 mph (ENE)    
Max Wind Speed 12 mph    
Max Gust Speed 16 mph    
Averages and records for this station are not official NWS values.
T = Trace of Precipitation, MM = Missing Value Source: NWS Daily Summary

Daily Weather History Graph

Daily Weather History Graph

Search for Another Location

Airport or City:

Trip Planner

Search our weather history database for the weather conditions in past years. The results will help you decide how hot, cold, wet, or windy it might be!

Date:

Astronomy

May. 31, 2014 Rise Set
Actual Time 6:48 AM CDT 8:45 PM CDT
Civil Twilight 6:21 AM CDT 9:12 PM CDT
Nautical Twilight 5:48 AM CDT 9:44 PM CDT
Astronomical Twilight 5:13 AM CDT 10:19 PM CDT
Moon 9:22 AM CDT (5/31) 11:11 PM CDT (5/31)
Length of Visible Light 14h 50m
Length of Day
13h 56m
Waxing Crescent, 8% of the Moon is Illuminated
May 31
Waxing Crescent
Jun 5
First Quarter
Jun 12
Full
Jun 19
Last Quarter
Jun 27
New

Hourly Weather History & Observations

Time (CDT) Temp. Heat Index Dew Point Humidity Pressure Visibility Wind Dir Wind Speed Gust Speed Precip Events Conditions
12:53 AM 81.0 °F - 48.9 °F 33% 29.81 in - North 5.8 mph - N/A   Unknown
1:53 AM 80.1 °F - 50.0 °F 35% 29.81 in - NNE 8.1 mph - N/A   Unknown
2:53 AM 78.1 °F - 50.0 °F 37% 29.81 in - NNE 5.8 mph - N/A   Unknown
3:53 AM 78.1 °F - 50.0 °F 37% 29.80 in - NNE 6.9 mph - N/A   Unknown
4:53 AM 78.1 °F - 51.1 °F 39% 29.79 in - North 8.1 mph - N/A   Unknown
5:53 AM 73.9 °F - 51.1 °F 45% 29.80 in - North 6.9 mph - N/A   Unknown
6:53 AM 73.9 °F - 52.0 °F 46% 29.82 in - NNE 6.9 mph - N/A   Unknown
7:53 AM 80.1 °F 80.0 °F 54.0 °F 40% 29.83 in - NE 4.6 mph - N/A   Unknown
8:53 AM 84.0 °F 82.9 °F 55.0 °F 37% 29.86 in - Variable 3.5 mph - N/A   Unknown
9:53 AM 86.0 °F 84.7 °F 55.9 °F 36% 29.86 in - East 4.6 mph - N/A   Unknown
10:53 AM 91.0 °F 88.9 °F 55.0 °F 29% 29.85 in - Variable 3.5 mph - N/A   Unknown
11:53 AM 93.9 °F - 51.1 °F 23% 29.85 in - East 5.8 mph - N/A   Unknown
5:53 PM 102.0 °F - 48.9 °F 17% 29.74 in - East 11.5 mph 16.1 mph N/A   Unknown
6:53 PM 100.9 °F - 50.0 °F 18% 29.73 in - East 11.5 mph - N/A   Unknown
7:53 PM 100.0 °F - 51.1 °F 19% 29.73 in - East 9.2 mph - N/A   Unknown
8:53 PM 96.1 °F - 51.1 °F 22% 29.74 in - ESE 6.9 mph - N/A   Unknown
9:53 PM 93.0 °F 90.6 °F 53.1 °F 26% 29.76 in - East 6.9 mph - N/A   Unknown
10:53 PM 90.0 °F 88.1 °F 55.9 °F 31% 29.79 in - East 8.1 mph - N/A   Unknown
11:53 PM 87.1 °F 85.7 °F 55.9 °F 35% 29.80 in - East 8.1 mph - N/A   Unknown